Macomb, IL

12:10 PM CDT on June 29, 2017 (GMT -0500)
Macomb Municipal

Weather History for KMQB - June, 2013

Change the Weather History Date:

Thursday, June 27, 2013

  Actual Average (KBRL) Record (KBRL)
Temperature  
Mean Temperature 82 °F -  
Max Temperature 91 °F 83 °F 105 °F (1934)
Min Temperature 72 °F 64 °F 47 °F (2017)
Cooling Degree Days 16    
Growing Degree Days 32 (Base 50)    
Moisture  
Dew Point 69 °F    
Average Humidity 69    
Maximum Humidity 93    
Minimum Humidity 39    
Precipitation  
Precipitation 0.00 in - - ()
Sea Level Pressure  
Sea Level Pressure 29.87 in    
Wind  
Wind Speed 9 mph (WNW)    
Max Wind Speed 20 mph    
Max Gust Speed 24 mph    
Visibility 9 miles    
Events      
Averages and records for this station are not official NWS values.
T = Trace of Precipitation, MM = Missing Value Source: NWS Daily Summary

Daily Weather History Graph

Daily Weather History Graph

Search for Another Location

Airport or City:

Trip Planner

Search our weather history database for the weather conditions in past years. The results will help you decide how hot, cold, wet, or windy it might be!

Date:

Astronomy

Jun. 27, 2013 Rise Set
Actual Time 5:34 AM CDT 8:37 PM CDT
Civil Twilight 5:00 AM CDT 9:10 PM CDT
Nautical Twilight 4:18 AM CDT 9:52 PM CDT
Astronomical Twilight 3:28 AM CDT 10:42 PM CDT
Moon 11:33 PM CDT (6/27) 10:36 AM CDT (6/27)
Length of Visible Light 16h 09m
Length of Day
15h 03m
Waning Gibbous, 76% of the Moon is Illuminated
Jun 27
Waning Gibbous
Jun 29
Last Quarter
Jul 8
New
Jul 15
First Quarter
Jul 22
Full

Hourly Weather History & Observations

Time (CDT) Temp. Heat Index Dew Point Humidity Pressure Visibility Wind Dir Wind Speed Gust Speed Precip Events Conditions
12:15 AM 76.8 °F - 74.3 °F 92% 29.83 in 7.0 mi WNW 5.8 mph - N/A   Clear
12:35 AM 76.5 °F - 74.3 °F 93% 29.83 in 7.0 mi West 6.9 mph - N/A   Clear
12:55 AM 76.3 °F - 73.9 °F 92% 29.83 in 7.0 mi WNW 6.9 mph - N/A   Clear
1:15 AM 76.3 °F - 74.1 °F 93% 29.83 in 7.0 mi West 6.9 mph - N/A   Clear
1:35 AM 76.5 °F - 74.3 °F 93% 29.83 in 7.0 mi WNW 6.9 mph - N/A   Clear
1:55 AM 76.6 °F - 74.3 °F 92% 29.83 in 7.0 mi WNW 8.1 mph - N/A   Clear
2:15 AM 77.0 °F - 74.5 °F 92% 29.83 in 7.0 mi WNW 5.8 mph - N/A   Scattered Clouds
2:35 AM 77.0 °F - 74.3 °F 91% 29.84 in 7.0 mi WNW 8.1 mph - N/A   Scattered Clouds
2:55 AM 76.3 °F - 73.8 °F 92% 29.84 in 7.0 mi WNW 6.9 mph - N/A   Clear
3:15 AM 75.7 °F - 73.4 °F 92% 29.84 in 7.0 mi WNW 6.9 mph - N/A   Clear
3:35 AM 75.2 °F - 72.5 °F 91% 29.84 in 7.0 mi West 6.9 mph - N/A   Clear
3:55 AM 74.7 °F - 72.3 °F 92% 29.84 in 10.0 mi West 6.9 mph - N/A   Clear
4:15 AM 74.3 °F - 72.0 °F 92% 29.85 in 7.0 mi West 8.1 mph - N/A   Clear
4:35 AM 74.3 °F - 72.0 °F 92% 29.85 in 7.0 mi West 8.1 mph - N/A   Clear
4:55 AM 74.3 °F - 71.8 °F 92% 29.86 in 10.0 mi West 8.1 mph - N/A   Clear
5:15 AM 73.6 °F - 71.2 °F 92% 29.87 in 10.0 mi West 6.9 mph - N/A   Clear
5:35 AM 73.4 °F - 70.7 °F 91% 29.87 in 7.0 mi West 8.1 mph - N/A   Clear
5:55 AM 72.9 °F - 70.7 °F 93% 29.87 in 10.0 mi WNW 6.9 mph - N/A   Clear
6:15 AM 73.0 °F - 70.3 °F 91% 29.87 in 10.0 mi West 6.9 mph - N/A   Clear
6:35 AM 73.4 °F - 70.7 °F 91% 29.88 in 10.0 mi West 6.9 mph - N/A   Clear
6:55 AM 74.3 °F - 71.1 °F 90% 29.88 in 10.0 mi WNW 6.9 mph - N/A   Clear
7:15 AM 75.6 °F - 71.2 °F 86% 29.88 in 10.0 mi WNW 8.1 mph - N/A   Clear
7:35 AM 76.6 °F - 71.2 °F 83% 29.89 in 10.0 mi WNW 9.2 mph - N/A   Clear
7:55 AM 77.9 °F - 71.2 °F 80% 29.90 in 10.0 mi WNW 10.4 mph - N/A   Clear
8:15 AM 79.0 °F - 71.2 °F 77% 29.90 in 10.0 mi NW 8.1 mph - N/A   Clear
8:35 AM 80.8 °F 84.7 °F 71.6 °F 73% 29.90 in 10.0 mi WNW 8.1 mph - N/A   Clear
8:55 AM 81.7 °F 85.8 °F 70.9 °F 70% 29.90 in 10.0 mi WNW 8.1 mph - N/A   Clear
9:15 AM 82.6 °F 86.8 °F 70.7 °F 67% 29.90 in 10.0 mi WNW 9.2 mph - N/A   Clear
9:35 AM 83.5 °F 87.4 °F 69.8 °F 63% 29.89 in 10.0 mi WNW 10.4 mph - N/A   Clear
9:55 AM 84.4 °F 88.7 °F 70.0 °F 62% 29.90 in 10.0 mi WNW 10.4 mph - N/A   Clear
10:15 AM 85.3 °F 89.4 °F 69.3 °F 59% 29.90 in 10.0 mi WNW 12.7 mph - N/A   Clear
10:35 AM 86.0 °F 89.1 °F 67.6 °F 54% 29.90 in 10.0 mi NW 12.7 mph - N/A   Clear
10:55 AM 86.7 °F 89.6 °F 67.1 °F 52% 29.90 in 10.0 mi WNW 11.5 mph - N/A   Clear
11:15 AM 87.3 °F 89.8 °F 66.7 °F 50% 29.90 in 10.0 mi WNW 10.4 mph - N/A   Clear
11:35 AM 88.3 °F 90.9 °F 66.2 °F 48% 29.90 in 10.0 mi WNW 12.7 mph - N/A   Clear
11:55 AM 88.9 °F 91.4 °F 66.4 °F 47% 29.90 in 10.0 mi NW 10.4 mph - N/A   Clear
12:15 PM 89.2 °F 90.2 °F 63.1 °F 42% 29.90 in 10.0 mi NNW 9.2 mph 17.3 mph N/A   Clear
12:35 PM 90.5 °F 91.8 °F 63.9 °F 41% 29.90 in 10.0 mi NW 11.5 mph - N/A   Clear
12:55 PM 91.2 °F 92.2 °F 63.3 °F 39% 29.90 in 10.0 mi West 12.7 mph - N/A   Clear
1:15 PM 90.7 °F 91.7 °F 63.3 °F 40% 29.90 in 10.0 mi West 11.5 mph - N/A   Clear
1:35 PM 89.6 °F 92.2 °F 66.0 °F 46% 29.90 in 10.0 mi West 11.5 mph - N/A   Clear
1:55 PM 88.7 °F 90.1 °F 64.2 °F 44% 29.90 in 10.0 mi West 9.2 mph 18.4 mph N/A   Clear
2:15 PM 87.6 °F 90.4 °F 66.9 °F 50% 29.90 in 10.0 mi West 8.1 mph - N/A   Clear
2:35 PM 88.0 °F 91.0 °F 67.5 °F 50% 29.90 in 10.0 mi West 11.5 mph - N/A   Clear
2:55 PM 87.1 °F 89.5 °F 66.2 °F 50% 29.90 in 10.0 mi West 11.5 mph 19.6 mph N/A   Clear
3:15 PM 86.9 °F 89.3 °F 66.4 °F 50% 29.90 in 10.0 mi WNW 12.7 mph 21.9 mph N/A   Clear
3:35 PM 87.3 °F 89.8 °F 66.7 °F 50% 29.90 in 10.0 mi West 16.1 mph 21.9 mph N/A   Clear
3:55 PM 86.2 °F 88.8 °F 66.7 °F 52% 29.90 in 10.0 mi West 19.6 mph 24.2 mph N/A   Clear
4:15 PM 85.5 °F 89.1 °F 68.7 °F 57% 29.89 in 10.0 mi West 12.7 mph 19.6 mph N/A   Mostly Cloudy
4:35 PM 85.5 °F 89.1 °F 68.9 °F 57% 29.87 in 10.0 mi WNW 13.8 mph 18.4 mph N/A   Scattered Clouds
4:55 PM 86.0 °F 88.5 °F 66.7 °F 52% 29.87 in 10.0 mi NW 15.0 mph 18.4 mph N/A   Clear
5:15 PM 84.7 °F 86.1 °F 64.4 °F 50% 29.86 in 10.0 mi WNW 15.0 mph 19.6 mph N/A   Clear
5:35 PM 84.4 °F 86.1 °F 65.1 °F 52% 29.85 in 10.0 mi WNW 11.5 mph - N/A   Clear
5:55 PM 86.0 °F 87.6 °F 64.8 °F 49% 29.85 in 10.0 mi WNW 13.8 mph - N/A   Clear
6:15 PM 86.0 °F 87.1 °F 63.3 °F 47% 29.85 in 10.0 mi NW 13.8 mph 19.6 mph N/A   Clear
6:35 PM 85.6 °F 87.1 °F 64.2 °F 49% 29.84 in 10.0 mi WNW 13.8 mph 18.4 mph N/A   Clear
6:55 PM 85.1 °F 86.4 °F 64.2 °F 49% 29.83 in 10.0 mi NW 16.1 mph 19.6 mph N/A   Clear
7:15 PM 84.6 °F 86.1 °F 64.6 °F 51% 29.83 in 10.0 mi NW 12.7 mph 24.2 mph N/A   Clear
7:35 PM 84.0 °F 85.6 °F 64.6 °F 52% 29.83 in 10.0 mi WNW 12.7 mph - N/A   Clear
7:55 PM 82.4 °F 84.6 °F 66.2 °F 58% 29.82 in 10.0 mi NW 8.1 mph - N/A   Clear
8:15 PM 80.8 °F 83.2 °F 67.1 °F 63% 29.82 in 10.0 mi WNW 9.2 mph - N/A   Clear
8:35 PM 79.2 °F - 67.5 °F 67% 29.82 in 10.0 mi West 8.1 mph - N/A   Clear
8:55 PM 77.5 °F - 67.5 °F 71% 29.82 in 10.0 mi West 6.9 mph - N/A   Clear
9:15 PM 76.1 °F - 67.6 °F 75% 29.82 in 10.0 mi West 6.9 mph - N/A   Clear
9:35 PM 76.3 °F - 67.1 °F 73% 29.83 in 10.0 mi West 9.2 mph - N/A   Clear
9:55 PM 75.2 °F - 67.3 °F 76% 29.83 in 10.0 mi West 6.9 mph - N/A   Clear
10:15 PM 75.2 °F - 67.3 °F 76% 29.84 in 10.0 mi West 6.9 mph - N/A   Clear
10:35 PM 74.3 °F - 67.3 °F 79% 29.85 in 10.0 mi West 6.9 mph - N/A   Clear
10:55 PM 74.5 °F - 67.5 °F 79% 29.85 in 10.0 mi West 6.9 mph - N/A   Clear
11:15 PM 74.3 °F - 68.0 °F 81% 29.86 in 10.0 mi West 8.1 mph - N/A   Clear
11:35 PM 74.3 °F - 68.2 °F 81% 29.86 in 10.0 mi West 8.1 mph - N/A   Clear
11:55 PM 73.4 °F - 68.4 °F 84% 29.86 in 10.0 mi West 6.9 mph - N/A   Clear